Year,Month,Day,Hour,Minute,Value (Times are PST for temperature in C)
2015,08,08,00,00,18.20
2015,08,08,00,01,18.20
2015,08,08,00,02,18.20
2015,08,08,00,03,18.20
2015,08,08,00,04,18.20
2015,08,08,00,05,18.20
2015,08,08,00,06,18.20
2015,08,08,00,07,18.20
2015,08,08,00,08,18.20
2015,08,08,00,09,18.20
2015,08,08,00,10,18.20
2015,08,08,00,11,18.20
2015,08,08,00,12,18.20
2015,08,08,00,13,18.20
2015,08,08,00,14,18.20
2015,08,08,00,15,18.10
2015,08,08,00,16,18.10
2015,08,08,00,17,18.10
2015,08,08,00,18,18.10
2015,08,08,00,19,18.10
2015,08,08,00,20,18.10
2015,08,08,00,21,18.10
2015,08,08,00,22,18.10
2015,08,08,00,23,18.10
2015,08,08,00,24,18.10
2015,08,08,00,25,18.10
2015,08,08,00,26,18.10
2015,08,08,00,27,18.10
2015,08,08,00,28,18.10
2015,08,08,00,29,18.10
2015,08,08,00,30,18.10
2015,08,08,00,31,18.10
2015,08,08,00,32,18.10
2015,08,08,00,33,18.10
2015,08,08,00,34,18.10
2015,08,08,00,35,18.10
2015,08,08,00,36,18.10
2015,08,08,00,37,18.00
2015,08,08,00,38,18.00
2015,08,08,00,39,18.00
2015,08,08,00,40,18.00
2015,08,08,00,41,18.00
2015,08,08,00,42,18.00
2015,08,08,00,43,18.00
2015,08,08,00,44,18.00
2015,08,08,00,45,18.00
2015,08,08,00,46,18.00
2015,08,08,00,47,18.00
2015,08,08,00,48,18.00
2015,08,08,00,49,18.00
2015,08,08,00,50,18.00
2015,08,08,00,51,18.00
2015,08,08,00,52,18.00
2015,08,08,00,53,18.00
2015,08,08,00,54,18.00
2015,08,08,00,55,18.00
2015,08,08,00,56,18.00
2015,08,08,00,57,18.00
2015,08,08,00,58,18.00
2015,08,08,00,59,18.00
2015,08,08,01,00,17.90
2015,08,08,01,01,17.90
2015,08,08,01,02,17.90
2015,08,08,01,03,17.90
2015,08,08,01,04,17.90
2015,08,08,01,05,17.90
2015,08,08,01,06,17.90
2015,08,08,01,07,17.90
2015,08,08,01,08,17.90
2015,08,08,01,09,17.90
2015,08,08,01,10,17.90
2015,08,08,01,11,17.90
2015,08,08,01,12,17.90
2015,08,08,01,13,17.90
2015,08,08,01,14,17.90
2015,08,08,01,15,17.90
2015,08,08,01,16,17.90
2015,08,08,01,17,17.90
2015,08,08,01,18,17.90
2015,08,08,01,19,17.90
2015,08,08,01,20,17.90
2015,08,08,01,21,17.90
2015,08,08,01,22,17.90
2015,08,08,01,23,17.80
2015,08,08,01,24,17.80
2015,08,08,01,25,17.80
2015,08,08,01,26,17.80
2015,08,08,01,27,17.80
2015,08,08,01,28,17.80
2015,08,08,01,29,17.70
2015,08,08,01,30,17.70
2015,08,08,01,31,17.70
2015,08,08,01,32,17.70
2015,08,08,01,33,17.70
2015,08,08,01,34,17.60
2015,08,08,01,35,17.60
2015,08,08,01,36,17.60
2015,08,08,01,37,17.60
2015,08,08,01,38,17.50
2015,08,08,01,39,17.50
2015,08,08,01,40,17.50
2015,08,08,01,41,17.40
2015,08,08,01,42,17.40
2015,08,08,01,43,17.40
2015,08,08,01,44,17.40
2015,08,08,01,45,17.40
2015,08,08,01,46,17.30
2015,08,08,01,47,17.30
2015,08,08,01,48,17.30
2015,08,08,01,49,17.30
2015,08,08,01,50,17.30
2015,08,08,01,51,17.30
2015,08,08,01,52,17.20
2015,08,08,01,53,17.20
2015,08,08,01,54,17.20
2015,08,08,01,55,17.20
2015,08,08,01,56,17.20
2015,08,08,01,57,17.20
2015,08,08,01,58,17.20
2015,08,08,01,59,17.20
2015,08,08,02,00,17.20
2015,08,08,02,01,17.20
2015,08,08,02,02,17.20
2015,08,08,02,03,17.20
2015,08,08,02,04,17.20
2015,08,08,02,05,17.20
2015,08,08,02,06,17.20
2015,08,08,02,07,17.20
2015,08,08,02,08,17.20
2015,08,08,02,09,17.20
2015,08,08,02,10,17.20
2015,08,08,02,11,17.20
2015,08,08,02,12,17.20
2015,08,08,02,13,17.20
2015,08,08,02,14,17.20
2015,08,08,02,15,17.20
2015,08,08,02,16,17.20
2015,08,08,02,17,17.10
2015,08,08,02,18,17.10
2015,08,08,02,19,17.10
2015,08,08,02,20,17.10
2015,08,08,02,21,17.10
2015,08,08,02,22,17.10
2015,08,08,02,23,17.10
2015,08,08,02,24,17.00
2015,08,08,02,25,17.00
2015,08,08,02,26,17.00
2015,08,08,02,27,17.00
2015,08,08,02,28,17.00
2015,08,08,02,29,16.90
2015,08,08,02,30,16.90
2015,08,08,02,31,16.90
2015,08,08,02,32,16.90
2015,08,08,02,33,16.80
2015,08,08,02,34,16.80
2015,08,08,02,35,16.80
2015,08,08,02,36,16.80
2015,08,08,02,37,16.80
2015,08,08,02,38,16.70
2015,08,08,02,39,16.70
2015,08,08,02,40,16.70
2015,08,08,02,41,16.70
2015,08,08,02,42,16.70
2015,08,08,02,43,16.70
2015,08,08,02,44,16.70
2015,08,08,02,45,16.60
2015,08,08,02,46,16.60
2015,08,08,02,47,16.60
2015,08,08,02,48,16.60
2015,08,08,02,49,16.60
2015,08,08,02,50,16.60
2015,08,08,02,51,16.50
2015,08,08,02,52,16.50
2015,08,08,02,53,16.50
2015,08,08,02,54,16.50
2015,08,08,02,55,16.50
2015,08,08,02,56,16.50
2015,08,08,02,57,16.50
2015,08,08,02,58,16.50
2015,08,08,02,59,16.50
2015,08,08,03,00,16.50
2015,08,08,03,01,16.60
2015,08,08,03,02,16.60
2015,08,08,03,03,16.60
2015,08,08,03,04,16.60
2015,08,08,03,05,16.60
2015,08,08,03,06,16.60
2015,08,08,03,07,16.60
2015,08,08,03,08,16.60
2015,08,08,03,09,16.60
2015,08,08,03,10,16.60
2015,08,08,03,11,16.50
2015,08,08,03,12,16.50
2015,08,08,03,13,16.50
2015,08,08,03,14,16.50
2015,08,08,03,15,16.50
2015,08,08,03,16,16.50
2015,08,08,03,17,16.50
2015,08,08,03,18,16.50
2015,08,08,03,19,16.50
2015,08,08,03,20,16.50
2015,08,08,03,21,16.50
2015,08,08,03,22,16.50
2015,08,08,03,23,16.50
2015,08,08,03,24,16.50
2015,08,08,03,25,16.50
2015,08,08,03,26,16.50
2015,08,08,03,27,16.50
2015,08,08,03,28,16.50
2015,08,08,03,29,16.40
2015,08,08,03,30,16.40
2015,08,08,03,31,16.40
2015,08,08,03,32,16.40
2015,08,08,03,33,16.40
2015,08,08,03,34,16.40
2015,08,08,03,35,16.40
2015,08,08,03,36,16.40
2015,08,08,03,37,16.40
2015,08,08,03,38,16.40
2015,08,08,03,39,16.40
2015,08,08,03,40,16.50
2015,08,08,03,41,16.40
2015,08,08,03,42,16.40
2015,08,08,03,43,16.40
2015,08,08,03,44,16.40
2015,08,08,03,45,16.40
2015,08,08,03,46,16.40
2015,08,08,03,47,16.40
2015,08,08,03,48,16.40
2015,08,08,03,49,16.40
2015,08,08,03,50,16.40
2015,08,08,03,51,16.30
2015,08,08,03,52,16.30
2015,08,08,03,53,16.30
2015,08,08,03,54,16.30
2015,08,08,03,55,16.30
2015,08,08,03,56,16.30
2015,08,08,03,57,16.30
2015,08,08,03,58,16.30
2015,08,08,03,59,16.30
2015,08,08,04,00,16.30
2015,08,08,04,01,16.30
2015,08,08,04,02,16.20
2015,08,08,04,03,16.30
2015,08,08,04,04,16.30
2015,08,08,04,05,16.20
2015,08,08,04,06,16.20
2015,08,08,04,07,16.20
2015,08,08,04,08,16.20
2015,08,08,04,09,16.20
2015,08,08,04,10,16.20
2015,08,08,04,11,16.20
2015,08,08,04,12,16.20
2015,08,08,04,13,16.20
2015,08,08,04,14,16.20
2015,08,08,04,15,16.20
2015,08,08,04,16,16.20
2015,08,08,04,17,16.20
2015,08,08,04,18,16.20
2015,08,08,04,19,16.20
2015,08,08,04,20,16.20
2015,08,08,04,21,16.20
2015,08,08,04,22,16.20
2015,08,08,04,23,16.20
2015,08,08,04,24,16.20
2015,08,08,04,25,16.30
2015,08,08,04,26,16.30
2015,08,08,04,27,16.30
2015,08,08,04,28,16.30
2015,08,08,04,29,16.30
2015,08,08,04,30,16.30
2015,08,08,04,31,16.30
2015,08,08,04,32,16.30
2015,08,08,04,33,16.30
2015,08,08,04,34,16.30
2015,08,08,04,35,16.30
2015,08,08,04,36,16.20
2015,08,08,04,37,16.20
2015,08,08,04,38,16.20
2015,08,08,04,39,16.10
2015,08,08,04,40,16.10
2015,08,08,04,41,16.10
2015,08,08,04,42,16.10
2015,08,08,04,43,16.10
2015,08,08,04,44,16.10
2015,08,08,04,45,16.10
2015,08,08,04,46,16.00
2015,08,08,04,47,16.00
2015,08,08,04,48,16.00
2015,08,08,04,49,16.00
2015,08,08,04,50,16.00
2015,08,08,04,51,16.00
2015,08,08,04,52,15.90
2015,08,08,04,53,15.90
2015,08,08,04,54,15.90
2015,08,08,04,55,15.90
2015,08,08,04,56,15.90
2015,08,08,04,57,15.90
2015,08,08,04,58,15.90
2015,08,08,04,59,15.80
2015,08,08,05,00,15.80
2015,08,08,05,01,15.80
2015,08,08,05,02,15.80
2015,08,08,05,03,15.80
2015,08,08,05,04,15.80
2015,08,08,05,05,15.80
2015,08,08,05,06,15.80
2015,08,08,05,07,15.80
2015,08,08,05,08,15.80
2015,08,08,05,09,15.80
2015,08,08,05,10,15.80
2015,08,08,05,11,15.70
2015,08,08,05,12,15.70
2015,08,08,05,13,15.70
2015,08,08,05,14,15.70
2015,08,08,05,15,15.70
2015,08,08,05,16,15.70
2015,08,08,05,17,15.70
2015,08,08,05,18,15.70
2015,08,08,05,19,15.70
2015,08,08,05,20,15.70
2015,08,08,05,21,15.70
2015,08,08,05,22,15.70
2015,08,08,05,23,15.70
2015,08,08,05,24,15.70
2015,08,08,05,25,15.70
2015,08,08,05,26,15.70
2015,08,08,05,27,15.70
2015,08,08,05,28,15.70
2015,08,08,05,29,15.70
2015,08,08,05,30,15.70
2015,08,08,05,31,15.70
2015,08,08,05,32,15.70
2015,08,08,05,33,15.70
2015,08,08,05,34,15.70
2015,08,08,05,35,15.70
2015,08,08,05,36,15.70
2015,08,08,05,37,15.70
2015,08,08,05,38,15.70
2015,08,08,05,39,15.70
2015,08,08,05,40,15.70
2015,08,08,05,41,15.70
2015,08,08,05,42,15.70
2015,08,08,05,43,15.70
2015,08,08,05,44,15.70
2015,08,08,05,45,15.70
2015,08,08,05,46,15.70
2015,08,08,05,47,15.70
2015,08,08,05,48,15.70
2015,08,08,05,49,15.70
2015,08,08,05,50,15.70
2015,08,08,05,51,15.70
2015,08,08,05,52,15.70
2015,08,08,05,53,15.70
2015,08,08,05,54,15.70
2015,08,08,05,55,15.70
2015,08,08,05,56,15.70
2015,08,08,05,57,15.70
2015,08,08,05,58,15.70
2015,08,08,05,59,15.70
2015,08,08,06,00,15.70
2015,08,08,06,01,15.80
2015,08,08,06,02,15.80
2015,08,08,06,03,15.80
2015,08,08,06,04,15.80
2015,08,08,06,05,15.80
2015,08,08,06,06,15.80
2015,08,08,06,07,15.80
2015,08,08,06,08,15.80
2015,08,08,06,09,15.80
2015,08,08,06,10,15.80
2015,08,08,06,11,15.90
2015,08,08,06,12,15.90
2015,08,08,06,13,15.90
2015,08,08,06,14,15.90
2015,08,08,06,15,15.90
2015,08,08,06,16,15.90
2015,08,08,06,17,15.90
2015,08,08,06,18,16.00
2015,08,08,06,19,16.00
2015,08,08,06,20,16.00
2015,08,08,06,21,16.00
2015,08,08,06,22,16.00
2015,08,08,06,23,16.00
2015,08,08,06,24,16.00
2015,08,08,06,25,16.00
2015,08,08,06,26,16.00
2015,08,08,06,27,16.00
2015,08,08,06,28,16.00
2015,08,08,06,29,16.10
2015,08,08,06,30,16.10
2015,08,08,06,31,16.10
2015,08,08,06,32,16.10
2015,08,08,06,33,16.10
2015,08,08,06,34,16.10
2015,08,08,06,35,16.10
2015,08,08,06,36,16.10
2015,08,08,06,37,16.10
2015,08,08,06,38,16.10
2015,08,08,06,39,16.10
2015,08,08,06,40,16.10
2015,08,08,06,41,16.10
2015,08,08,06,42,16.10
2015,08,08,06,43,16.10
2015,08,08,06,44,16.20
2015,08,08,06,45,16.20
2015,08,08,06,46,16.20
2015,08,08,06,47,16.20
2015,08,08,06,48,16.20
2015,08,08,06,49,16.20
2015,08,08,06,50,16.20
2015,08,08,06,51,16.20
2015,08,08,06,52,16.20
2015,08,08,06,53,16.20
2015,08,08,06,54,16.20
2015,08,08,06,55,16.20
2015,08,08,06,56,16.20
2015,08,08,06,57,16.20
2015,08,08,06,58,16.20
2015,08,08,06,59,16.20
2015,08,08,07,00,16.20
2015,08,08,07,01,16.20
2015,08,08,07,02,16.20
2015,08,08,07,03,16.20
2015,08,08,07,04,16.20
2015,08,08,07,05,16.20
2015,08,08,07,06,16.20
2015,08,08,07,07,16.30
2015,08,08,07,08,16.30
2015,08,08,07,09,16.30
2015,08,08,07,10,16.30
2015,08,08,07,11,16.30
2015,08,08,07,12,16.30
2015,08,08,07,13,16.30
2015,08,08,07,14,16.30
2015,08,08,07,15,16.30
2015,08,08,07,16,16.30
2015,08,08,07,17,16.30
2015,08,08,07,18,16.30
2015,08,08,07,19,16.30
2015,08,08,07,20,16.40
2015,08,08,07,21,16.40
2015,08,08,07,22,16.40
2015,08,08,07,23,16.40
2015,08,08,07,24,16.40
2015,08,08,07,25,16.40
2015,08,08,07,26,16.40
2015,08,08,07,27,16.40
2015,08,08,07,28,16.40
2015,08,08,07,29,16.40
2015,08,08,07,30,16.50
2015,08,08,07,31,16.50
2015,08,08,07,32,16.50
2015,08,08,07,33,16.50
2015,08,08,07,34,16.60
2015,08,08,07,35,16.60
2015,08,08,07,36,16.60
2015,08,08,07,37,16.60
2015,08,08,07,38,16.70
2015,08,08,07,39,16.70
2015,08,08,07,40,16.70
2015,08,08,07,41,16.70
2015,08,08,07,42,16.80
2015,08,08,07,43,16.80
2015,08,08,07,44,16.90
2015,08,08,07,45,16.90
2015,08,08,07,46,17.00
2015,08,08,07,47,17.10
2015,08,08,07,48,17.10
2015,08,08,07,49,17.10
2015,08,08,07,50,17.20
2015,08,08,07,51,17.20
2015,08,08,07,52,17.20
2015,08,08,07,53,17.20
2015,08,08,07,54,17.20
2015,08,08,07,55,17.30
2015,08,08,07,56,17.30
2015,08,08,07,57,17.30
2015,08,08,07,58,17.30
2015,08,08,07,59,17.30
2015,08,08,08,00,17.30
2015,08,08,08,01,17.30
2015,08,08,08,02,17.30
2015,08,08,08,03,17.30
2015,08,08,08,04,17.30
2015,08,08,08,05,17.30
2015,08,08,08,06,17.30
2015,08,08,08,07,17.30
2015,08,08,08,08,17.30
2015,08,08,08,09,17.30
2015,08,08,08,10,17.40
2015,08,08,08,11,17.40
2015,08,08,08,12,17.40
2015,08,08,08,13,17.40
2015,08,08,08,14,17.40
2015,08,08,08,15,17.40
2015,08,08,08,16,17.40
2015,08,08,08,17,17.40
2015,08,08,08,18,17.50
2015,08,08,08,19,17.50
2015,08,08,08,20,17.60
2015,08,08,08,21,17.60
2015,08,08,08,22,17.60
2015,08,08,08,23,17.60
2015,08,08,08,24,17.70
2015,08,08,08,25,17.70
2015,08,08,08,26,17.70
2015,08,08,08,27,17.70
2015,08,08,08,28,17.80
2015,08,08,08,29,17.80
2015,08,08,08,30,17.80
2015,08,08,08,31,17.90
2015,08,08,08,32,17.90
2015,08,08,08,33,17.90
2015,08,08,08,34,17.90
2015,08,08,08,35,18.00
2015,08,08,08,36,18.00
2015,08,08,08,37,18.00
2015,08,08,08,38,18.00
2015,08,08,08,39,18.00
2015,08,08,08,40,18.00
2015,08,08,08,41,18.00
2015,08,08,08,42,18.00
2015,08,08,08,43,18.10
2015,08,08,08,44,18.10
2015,08,08,08,45,18.10
2015,08,08,08,46,18.10
2015,08,08,08,47,18.20
2015,08,08,08,48,18.20
2015,08,08,08,49,18.20
2015,08,08,08,50,18.20
2015,08,08,08,51,18.30
2015,08,08,08,52,18.30
2015,08,08,08,53,18.30
2015,08,08,08,54,18.30
2015,08,08,08,55,18.40
2015,08,08,08,56,18.40
2015,08,08,08,57,18.40
2015,08,08,08,58,18.50
2015,08,08,08,59,18.50
2015,08,08,09,00,18.50
2015,08,08,09,01,18.60
2015,08,08,09,02,18.60
2015,08,08,09,03,18.60
2015,08,08,09,04,18.60
2015,08,08,09,05,18.70
2015,08,08,09,06,18.70
2015,08,08,09,07,18.70
2015,08,08,09,08,18.70
2015,08,08,09,09,18.70
2015,08,08,09,10,18.70
2015,08,08,09,11,18.70
2015,08,08,09,12,18.70
2015,08,08,09,13,18.70
2015,08,08,09,14,18.70
2015,08,08,09,15,18.80
2015,08,08,09,16,18.80
2015,08,08,09,17,18.80
2015,08,08,09,18,18.80
2015,08,08,09,19,18.90
2015,08,08,09,20,18.90
2015,08,08,09,21,18.90
2015,08,08,09,22,18.90
2015,08,08,09,23,18.90
2015,08,08,09,24,18.80
2015,08,08,09,25,18.80
2015,08,08,09,26,18.80
2015,08,08,09,27,18.80
2015,08,08,09,28,18.80
2015,08,08,09,29,18.80
2015,08,08,09,30,18.80
2015,08,08,09,31,18.80
2015,08,08,09,32,18.80
2015,08,08,09,33,18.80
2015,08,08,09,34,18.80
2015,08,08,09,35,18.80
2015,08,08,09,36,18.80
2015,08,08,09,37,18.70
2015,08,08,09,38,18.70
2015,08,08,09,39,18.70
2015,08,08,09,40,18.70
2015,08,08,09,41,18.80
2015,08,08,09,42,18.80
2015,08,08,09,43,18.80
2015,08,08,09,44,18.80
2015,08,08,09,45,18.90
2015,08,08,09,46,18.90
2015,08,08,09,47,19.00
2015,08,08,09,48,19.00
2015,08,08,09,49,19.10
2015,08,08,09,50,19.20
2015,08,08,09,51,19.20
2015,08,08,09,52,19.30
2015,08,08,09,53,19.40
2015,08,08,09,54,19.40
2015,08,08,09,55,19.50
2015,08,08,09,56,19.50
2015,08,08,09,57,19.60
2015,08,08,09,58,19.60
2015,08,08,09,59,19.60
2015,08,08,10,00,19.60
2015,08,08,10,01,19.60
2015,08,08,10,02,19.60
2015,08,08,10,03,19.60
2015,08,08,10,04,19.60
2015,08,08,10,05,19.60
2015,08,08,10,06,19.50
2015,08,08,10,07,19.50
2015,08,08,10,08,19.50
2015,08,08,10,09,19.40
2015,08,08,10,10,19.40
2015,08,08,10,11,19.40
2015,08,08,10,12,19.40
2015,08,08,10,13,19.50
2015,08,08,10,14,19.50
2015,08,08,10,15,19.40
2015,08,08,10,16,19.50
2015,08,08,10,17,19.40
2015,08,08,10,18,19.30
2015,08,08,10,19,19.20
2015,08,08,10,20,19.10
2015,08,08,10,21,19.00
2015,08,08,10,22,18.90
2015,08,08,10,23,18.80
2015,08,08,10,24,18.80
2015,08,08,10,25,18.70
2015,08,08,10,26,18.70
2015,08,08,10,27,18.70
2015,08,08,10,28,18.60
2015,08,08,10,29,18.60
2015,08,08,10,30,18.50
2015,08,08,10,31,18.50
2015,08,08,10,32,18.40
2015,08,08,10,33,18.40
2015,08,08,10,34,18.30
2015,08,08,10,35,18.30
2015,08,08,10,36,18.30
2015,08,08,10,37,18.20
2015,08,08,10,38,18.20
2015,08,08,10,39,18.20
2015,08,08,10,40,18.20
2015,08,08,10,41,18.20
2015,08,08,10,42,18.20
2015,08,08,10,43,18.20
2015,08,08,10,44,18.20
2015,08,08,10,45,18.20
2015,08,08,10,46,18.20
2015,08,08,10,47,18.20
2015,08,08,10,48,18.20
2015,08,08,10,49,18.20
2015,08,08,10,50,18.20
2015,08,08,10,51,18.20
2015,08,08,10,52,18.20
2015,08,08,10,53,18.20
2015,08,08,10,54,18.20
2015,08,08,10,55,18.20
2015,08,08,10,56,18.20
2015,08,08,10,57,18.20
2015,08,08,10,58,18.20
2015,08,08,10,59,18.20
2015,08,08,11,00,18.20
2015,08,08,11,01,18.20
2015,08,08,11,02,18.20
2015,08,08,11,03,18.20
2015,08,08,11,04,18.20
2015,08,08,11,05,18.20
2015,08,08,11,06,18.20
2015,08,08,11,07,18.20
2015,08,08,11,08,18.20
2015,08,08,11,09,18.20
2015,08,08,11,10,18.20
2015,08,08,11,11,18.30
2015,08,08,11,12,18.30
2015,08,08,11,13,18.30
2015,08,08,11,14,18.20
2015,08,08,11,15,18.20
2015,08,08,11,16,18.20
2015,08,08,11,17,18.20
2015,08,08,11,18,18.20
2015,08,08,11,19,18.20
2015,08,08,11,20,18.20
2015,08,08,11,21,18.20
2015,08,08,11,22,18.20
2015,08,08,11,23,18.20
2015,08,08,11,24,18.20
2015,08,08,11,25,18.20
2015,08,08,11,26,18.20
2015,08,08,11,27,18.20
2015,08,08,11,28,18.20
2015,08,08,11,29,18.20
2015,08,08,11,30,18.20
2015,08,08,11,31,18.20
2015,08,08,11,32,18.20
2015,08,08,11,33,18.20
2015,08,08,11,34,18.20
2015,08,08,11,35,18.20
2015,08,08,11,36,18.20
2015,08,08,11,37,18.30
2015,08,08,11,38,18.30
2015,08,08,11,39,18.30
2015,08,08,11,40,18.30
2015,08,08,11,41,18.30
2015,08,08,11,42,18.30
2015,08,08,11,43,18.30
2015,08,08,11,44,18.30
2015,08,08,11,45,18.30
2015,08,08,11,46,18.30
2015,08,08,11,47,18.30
2015,08,08,11,48,18.30
2015,08,08,11,49,18.30
2015,08,08,11,50,18.30
2015,08,08,11,51,18.30
2015,08,08,11,52,18.40
2015,08,08,11,53,18.40
2015,08,08,11,54,18.50
2015,08,08,11,55,18.50
2015,08,08,11,56,18.60
2015,08,08,11,57,18.60
2015,08,08,11,58,18.70
2015,08,08,11,59,18.70
2015,08,08,12,00,18.80
2015,08,08,12,01,18.80
2015,08,08,12,02,18.80
2015,08,08,12,03,18.80
2015,08,08,12,04,18.90
2015,08,08,12,05,18.90
2015,08,08,12,06,18.90
2015,08,08,12,07,19.00
2015,08,08,12,08,19.00
2015,08,08,12,09,19.10
2015,08,08,12,10,19.10
2015,08,08,12,11,19.20
2015,08,08,12,12,19.20
2015,08,08,12,13,19.20
2015,08,08,12,14,19.10
2015,08,08,12,15,19.10
2015,08,08,12,16,19.00
2015,08,08,12,17,19.00
2015,08,08,12,18,18.90
2015,08,08,12,19,18.90
2015,08,08,12,20,18.90
2015,08,08,12,21,18.80
2015,08,08,12,22,18.80
2015,08,08,12,23,18.80
2015,08,08,12,24,18.80
2015,08,08,12,25,18.70
2015,08,08,12,26,18.70
2015,08,08,12,27,18.70
2015,08,08,12,28,18.70
2015,08,08,12,29,18.70
2015,08,08,12,30,18.70
2015,08,08,12,31,18.70
2015,08,08,12,32,18.60
2015,08,08,12,33,18.60
2015,08,08,12,34,18.60
2015,08,08,12,35,18.60
2015,08,08,12,36,18.60
2015,08,08,12,37,18.50
2015,08,08,12,38,18.50
2015,08,08,12,39,18.50
2015,08,08,12,40,18.50
2015,08,08,12,41,18.50
2015,08,08,12,42,18.50
2015,08,08,12,43,18.50
2015,08,08,12,44,18.50
2015,08,08,12,45,18.50
2015,08,08,12,46,18.50
2015,08,08,12,47,18.60
2015,08,08,12,48,18.60
2015,08,08,12,49,18.60
2015,08,08,12,50,18.60
2015,08,08,12,51,18.70
2015,08,08,12,52,18.70
2015,08,08,12,53,18.70
2015,08,08,12,54,18.70
2015,08,08,12,55,18.70
2015,08,08,12,56,18.70
2015,08,08,12,57,18.80
2015,08,08,12,58,18.80
2015,08,08,12,59,18.80
2015,08,08,13,00,18.80
2015,08,08,13,01,18.90
2015,08,08,13,02,18.90
2015,08,08,13,03,19.00
2015,08,08,13,04,19.00
2015,08,08,13,05,19.10
2015,08,08,13,06,19.20
2015,08,08,13,07,19.30
2015,08,08,13,08,19.30
2015,08,08,13,09,19.40
2015,08,08,13,10,19.40
2015,08,08,13,11,19.50
2015,08,08,13,12,19.60
2015,08,08,13,13,19.60
2015,08,08,13,14,19.60
2015,08,08,13,15,19.60
2015,08,08,13,16,19.60
2015,08,08,13,17,19.60
2015,08,08,13,18,19.70
2015,08,08,13,19,19.70
2015,08,08,13,20,19.70
2015,08,08,13,21,19.70
2015,08,08,13,22,19.70
2015,08,08,13,23,19.60
2015,08,08,13,24,19.60
2015,08,08,13,25,19.50
2015,08,08,13,26,19.40
2015,08,08,13,27,19.30
2015,08,08,13,28,19.20
2015,08,08,13,29,19.10
2015,08,08,13,30,19.00
2015,08,08,13,31,19.00
2015,08,08,13,32,18.90
2015,08,08,13,33,18.80
2015,08,08,13,34,18.80
2015,08,08,13,35,18.70
2015,08,08,13,36,18.60
2015,08,08,13,37,18.60
2015,08,08,13,38,18.50
2015,08,08,13,39,18.40
2015,08,08,13,40,18.40
2015,08,08,13,41,18.30
2015,08,08,13,42,18.30
2015,08,08,13,43,18.20
2015,08,08,13,44,18.20
2015,08,08,13,45,18.10
2015,08,08,13,46,18.10
2015,08,08,13,47,18.10
2015,08,08,13,48,18.10
2015,08,08,13,49,18.10
2015,08,08,13,50,18.10
2015,08,08,13,51,18.10
2015,08,08,13,52,18.00
2015,08,08,13,53,18.00
2015,08,08,13,54,18.00
2015,08,08,13,55,18.00
2015,08,08,13,56,18.00
2015,08,08,13,57,18.00
2015,08,08,13,58,18.00
2015,08,08,13,59,18.00
2015,08,08,14,00,18.00
2015,08,08,14,01,18.00
2015,08,08,14,02,18.00
2015,08,08,14,03,18.00
2015,08,08,14,04,18.00
2015,08,08,14,05,18.00
2015,08,08,14,06,18.00
2015,08,08,14,07,18.00
2015,08,08,14,08,18.00
2015,08,08,14,09,18.00
2015,08,08,14,10,18.00
2015,08,08,14,11,18.00
2015,08,08,14,12,18.00
2015,08,08,14,13,18.00
2015,08,08,14,14,18.00
2015,08,08,14,15,18.00
2015,08,08,14,16,18.00
2015,08,08,14,17,18.00
2015,08,08,14,18,18.10
2015,08,08,14,19,18.10
2015,08,08,14,20,18.10
2015,08,08,14,21,18.10
2015,08,08,14,22,18.00
2015,08,08,14,23,18.10
2015,08,08,14,24,18.10
2015,08,08,14,25,18.10
2015,08,08,14,26,18.10
2015,08,08,14,27,18.10
2015,08,08,14,28,18.10
2015,08,08,14,29,18.10
2015,08,08,14,30,18.00
2015,08,08,14,31,18.00
2015,08,08,14,32,18.00
2015,08,08,14,33,18.00
2015,08,08,14,34,17.90
2015,08,08,14,35,17.90
2015,08,08,14,36,17.90
2015,08,08,14,37,17.90
2015,08,08,14,38,17.90
2015,08,08,14,39,17.90
2015,08,08,14,40,17.90
2015,08,08,14,41,17.90
2015,08,08,14,42,17.90
2015,08,08,14,43,17.90
2015,08,08,14,44,17.90
2015,08,08,14,45,17.90
2015,08,08,14,46,17.90
2015,08,08,14,47,17.90
2015,08,08,14,48,17.90
2015,08,08,14,49,17.90
2015,08,08,14,50,17.90
2015,08,08,14,51,17.90
2015,08,08,14,52,17.90
2015,08,08,14,53,17.90
2015,08,08,14,54,17.90
2015,08,08,14,55,17.90
2015,08,08,14,56,17.90
2015,08,08,14,57,17.80
2015,08,08,14,58,17.80
2015,08,08,14,59,17.80
2015,08,08,15,00,17.80
2015,08,08,15,01,17.90
2015,08,08,15,02,17.90
2015,08,08,15,03,17.90
2015,08,08,15,04,17.90
2015,08,08,15,05,17.90
2015,08,08,15,06,18.00
2015,08,08,15,07,18.00
2015,08,08,15,08,18.00
2015,08,08,15,09,18.00
2015,08,08,15,10,18.00
2015,08,08,15,11,18.00
2015,08,08,15,12,18.00
2015,08,08,15,13,18.00
2015,08,08,15,14,18.00
2015,08,08,15,15,18.00
2015,08,08,15,16,18.00
2015,08,08,15,17,18.00
2015,08,08,15,18,18.00
2015,08,08,15,19,18.00
2015,08,08,15,20,18.00
2015,08,08,15,21,18.10
2015,08,08,15,22,18.10
2015,08,08,15,23,18.10
2015,08,08,15,24,18.10
2015,08,08,15,25,18.10
2015,08,08,15,26,18.10
2015,08,08,15,27,18.10
2015,08,08,15,28,18.10
2015,08,08,15,29,18.10
2015,08,08,15,30,18.20
2015,08,08,15,31,18.20
2015,08,08,15,32,18.20
2015,08,08,15,33,18.20
2015,08,08,15,34,18.20
2015,08,08,15,35,18.20
2015,08,08,15,36,18.20
2015,08,08,15,37,18.20
2015,08,08,15,38,18.20
2015,08,08,15,39,18.20
2015,08,08,15,40,18.20
2015,08,08,15,41,18.20
2015,08,08,15,42,18.20
2015,08,08,15,43,18.20
2015,08,08,15,44,18.20
2015,08,08,15,45,18.20
2015,08,08,15,46,18.20
2015,08,08,15,47,18.20
2015,08,08,15,48,18.20
2015,08,08,15,49,18.20
2015,08,08,15,50,18.20
2015,08,08,15,51,18.20
2015,08,08,15,52,18.20
2015,08,08,15,53,18.20
2015,08,08,15,54,18.20
2015,08,08,15,55,18.20
2015,08,08,15,56,18.20
2015,08,08,15,57,18.30
2015,08,08,15,58,18.30
2015,08,08,15,59,18.30
2015,08,08,16,00,18.30
2015,08,08,16,01,18.30
2015,08,08,16,02,18.30
2015,08,08,16,03,18.30
2015,08,08,16,04,18.30
2015,08,08,16,05,18.30
2015,08,08,16,06,18.40
2015,08,08,16,07,18.40
2015,08,08,16,08,18.40
2015,08,08,16,09,18.40
2015,08,08,16,10,18.40
2015,08,08,16,11,18.40
2015,08,08,16,12,18.40
2015,08,08,16,13,18.40
2015,08,08,16,14,18.40
2015,08,08,16,15,18.40
2015,08,08,16,16,18.40
2015,08,08,16,17,18.40
2015,08,08,16,18,18.40
2015,08,08,16,19,18.50
2015,08,08,16,20,18.50
2015,08,08,16,21,18.40
2015,08,08,16,22,18.40
2015,08,08,16,23,18.40
2015,08,08,16,24,18.40
2015,08,08,16,25,18.50
2015,08,08,16,26,18.50
2015,08,08,16,27,18.50
2015,08,08,16,28,18.40
2015,08,08,16,29,18.40
2015,08,08,16,30,18.40
2015,08,08,16,31,18.40
2015,08,08,16,32,18.40
2015,08,08,16,33,18.40
2015,08,08,16,34,18.40
2015,08,08,16,35,18.40
2015,08,08,16,36,18.40
2015,08,08,16,37,18.30
2015,08,08,16,38,18.30
2015,08,08,16,39,18.30
2015,08,08,16,40,18.30
2015,08,08,16,41,18.30
2015,08,08,16,42,18.30
2015,08,08,16,43,18.30
2015,08,08,16,44,18.30
2015,08,08,16,45,18.30
2015,08,08,16,46,18.30
2015,08,08,16,47,18.30
2015,08,08,16,48,18.30
2015,08,08,16,49,18.30
2015,08,08,16,50,18.30
2015,08,08,16,51,18.40
2015,08,08,16,52,18.40
2015,08,08,16,53,18.40
2015,08,08,16,54,18.40
2015,08,08,16,55,18.40
2015,08,08,16,56,18.40
2015,08,08,16,57,18.40
2015,08,08,16,58,18.40
2015,08,08,16,59,18.50
2015,08,08,17,00,18.50
2015,08,08,17,01,18.50
2015,08,08,17,02,18.50
2015,08,08,17,03,18.50
2015,08,08,17,04,18.50
2015,08,08,17,05,18.50
2015,08,08,17,06,18.40
2015,08,08,17,07,18.40
2015,08,08,17,08,18.40
2015,08,08,17,09,18.40
2015,08,08,17,10,18.40
2015,08,08,17,11,18.40
2015,08,08,17,12,18.40
2015,08,08,17,13,18.40
2015,08,08,17,14,18.40
2015,08,08,17,15,18.40
2015,08,08,17,16,18.40
2015,08,08,17,17,18.40
2015,08,08,17,18,18.40
2015,08,08,17,19,18.40